星链-1595 (STARLINK-1595 )

导读 | 豆包AI

STARLINK-1595是美国SpaceX公司于2020年8月18日发射的星链V1.0版本低轨通信卫星,隶属于星链全球卫星互联网星座。卫星重量约386kg,运行在近地轨道,为全球提供高速低延迟宽带互联网服务,尤其服务基础设施匮乏区域,单星设计寿命约5至7年,退役后会主动离轨再入大气层。

基本信息
目录编号:
46159
目录名称:
STARLINK-1595
国际标识:
2020-057AU
轨道中心:
EARTH
卫星名称:
星链-1595
卫星全名:
星链-1595 (STARLINK-1595 )
卫星状态:
在轨 (已飞行2055 天)
发射日期:
2020-08-18 UTC
国别 :
美国 (US)
星等 :
--
轨道信息
数据来源 国际轨道数据
星历时间: 2026-04-04T04:00:02+0800
5小时前
查看轨道信息
半长轴: 6778.67km
偏心率: 0.0001908
轨道倾角: 53.045°
近地点辐角 291.544°
升交点赤经 175.521°
平近点角 359.868°
近地点: 399.239km
远地点: 401.827km
周期: 92.571分钟
每日圈数: 15.555576
详细信息
固有亮度:
5
最大亮度:
2.5
卫星平台:
Starlink V1.0
覆盖范围:
全球
运营商:
太空探索技术公司
运营商所在国:
美国
制造商(研发单位):
太空探索技术公司
制造商所在国:
美国
使用方式:
暂无
卫星简介
星链(Starlink)计划是由太空探索技术公司(SpaceX)提出的一个巨型低轨卫星互联网星座项目,计划在2019年至2024年间在太空搭建由约1.2万颗卫星组成的“星链”网络,其中1584颗将部署在地球上空550千米处的近地轨道,并从2020年开始工作。该卫星仍在工作。
2D轨道图
3D轨道图
轨道高度分析图
轨道倾角分析图
轨道综合分析图
查看轨道综合分析图